Location: Unspecified
(64.9000°N, 0.0000°E)
Time: 17:55:42
(UTC+00:00)

Altair - Pass Details

Date: 24 June 2019
Orbit: 1501 x 1683 km, 47.2° (Epoch: 14 July)

Event Time Altitude Azimuth Distance (km) Brightness Sun altitude
Rises 02:15:57 0° 273° (W) 4,850 9.8 2.0°
Reaches altitude 10° 02:22:20 10° 243° (WSW) 3,901 9.1 2.4°
Maximum altitude 02:24:52 11° 228° (SW) 3,814 9.0 2.5°
Drops below altitude 10° 02:27:25 10° 213° (SSW) 3,922 9.0 2.6°
Sets 02:33:57 0° 183° (S) 4,926 9.6 3.0°
